• In Germany
  • List of Countries
  • For 7 days
  • Water Temperature
  • Satellite Maps
  • Weather Map
  • Weather Widgets
  • user-avatar
    Login

    Hourly Weather Ara-Kiret

    Today, 21 September, Friday

    Time Temperature Precipitation Wind Pressure Humidity
    00:00 -2°C° 0.3 mm 6 mps 685 mmHg 93%
    01:00 -1°C° 0 mm 4 mps 685 mmHg 92%
    02:00 -1°C° 0.1 mm 4 mps 686 mmHg 93%
    03:00 -1°C° 0.1 mm 4 mps 686 mmHg 94%
    04:00 -1°C° 0.1 mm 4 mps 686 mmHg 94%
    05:00 -1°C° 0.1 mm 4 mps 687 mmHg 95%
    06:00 -1°C° 0.1 mm 4 mps 687 mmHg 96%
    07:00 0°C° 0.1 mm 3 mps 687 mmHg 97%
    08:00 0°C° 0.1 mm 3 mps 688 mmHg 98%
    09:00 +1°C° 0.1 mm 3 mps 688 mmHg 98%
    10:00 +1°C° 0.1 mm 3 mps 689 mmHg 98%
    11:00 +1°C° 0 mm 3 mps 689 mmHg 98%
    12:00 +1°C° 0 mm 3 mps 689 mmHg 98%
    13:00 +5°C° 0 mm 5 mps 689 mmHg 72%
    14:00 +5°C° 0.1 mm 5 mps 689 mmHg 72%
    15:00 +5°C° 0.1 mm 4 mps 690 mmHg 73%
    16:00 +5°C° 0.1 mm 4 mps 690 mmHg 73%
    17:00 +4°C° 0.1 mm 3 mps 690 mmHg 77%
    18:00 +3°C° 0.1 mm 3 mps 690 mmHg 81%
    19:00 +3°C° 0.1 mm 2 mps 690 mmHg 85%
    20:00 +3°C° 0 mm 2 mps 690 mmHg 86%
    21:00 +2°C° 0 mm 2 mps 690 mmHg 88%
    22:00 +2°C° 0 mm 2 mps 690 mmHg 90%
    23:00 +2°C° 0 mm 2 mps 691 mmHg 90%

    Tomorrow, 22 September, Saturday

    Time Temperature Precipitation Wind Pressure Humidity
    00:00 +2°C° 0 mm 2 mps 691 mmHg 91%
    01:00 +1°C° 0 mm 2 mps 691 mmHg 91%
    02:00 +2°C° 0 mm 1 mps 691 mmHg 91%
    03:00 +2°C° 0 mm 1 mps 691 mmHg 92%
    04:00 +2°C° 0 mm 1 mps 692 mmHg 92%
    05:00 +2°C° 0 mm 1 mps 692 mmHg 90%
    06:00 +3°C° 0 mm 1 mps 692 mmHg 88%
    07:00 +3°C° 0 mm 1 mps 693 mmHg 87%
    08:00 +5°C° 0 mm 1 mps 693 mmHg 81%
    09:00 +7°C° 0 mm 1 mps 693 mmHg 75%
    10:00 +9°C° 0 mm 1 mps 694 mmHg 68%
    11:00 +9°C° 0 mm 1 mps 694 mmHg 66%
    12:00 +9°C° 0 mm 2 mps 694 mmHg 64%
    13:00 +10°C° 0 mm 2 mps 694 mmHg 61%
    14:00 +11°C° 0 mm 1 mps 693 mmHg 61%
    15:00 +11°C° 0 mm 1 mps 693 mmHg 61%
    16:00 +11°C° 0 mm 1 mps 693 mmHg 61%
    17:00 +9°C° 0 mm 1 mps 693 mmHg 67%
    18:00 +7°C° 0 mm 1 mps 693 mmHg 73%
    19:00 +5°C° 0 mm 1 mps 693 mmHg 79%
    20:00 +5°C° 0 mm 1 mps 693 mmHg 81%
    21:00 +4°C° 0 mm 1 mps 693 mmHg 82%
    22:00 +4°C° 0 mm 1 mps 693 mmHg 84%
    23:00 +4°C° 0 mm 1 mps 693 mmHg 86%

    Day after tomorrow, 23 September, Sunday

    Time Temperature Precipitation Wind Pressure Humidity
    00:00 +3°C° 0 mm 1 mps 693 mmHg 87%
    01:00 +3°C° 0 mm 1 mps 693 mmHg 88%
    02:00 +3°C° 0 mm 1 mps 693 mmHg 89%
    03:00 +1°C° 0 mm 2 mps 693 mmHg 90%
    04:00 +1°C° 0 mm 2 mps 693 mmHg 90%
    05:00 +2°C° 0 mm 2 mps 693 mmHg 88%
    06:00 +2°C° 0 mm 2 mps 693 mmHg 85%
    07:00 +3°C° 0 mm 2 mps 693 mmHg 82%
    08:00 +6°C° 0 mm 2 mps 693 mmHg 75%
    09:00 +8°C° 0 mm 2 mps 693 mmHg 67%
    10:00 +10°C° 0 mm 2 mps 693 mmHg 60%
    11:00 +12°C° 0 mm 2 mps 692 mmHg 56%
    12:00 +13°C° 0 mm 2 mps 692 mmHg 52%
    13:00 +14°C° 0 mm 2 mps 691 mmHg 49%
    14:00 +14°C° 0 mm 2 mps 691 mmHg 50%
    15:00 +14°C° 0 mm 2 mps 691 mmHg 52%
    16:00 +14°C° 0 mm 2 mps 691 mmHg 53%
    17:00 +12°C° 0 mm 2 mps 690 mmHg 61%
    18:00 +8°C° 0 mm 2 mps 690 mmHg 69%
    19:00 +6°C° 0 mm 2 mps 690 mmHg 77%
    20:00 +5°C° 0 mm 2 mps 690 mmHg 79%
    21:00 +5°C° 0 mm 2 mps 690 mmHg 82%
    22:00 +4°C° 0 mm 2 mps 690 mmHg 84%
    23:00 +4°C° 0 mm 2 mps 690 mmHg 86%

    24 September, Monday

    Time Temperature Precipitation Wind Pressure Humidity
    00:00 +3°C° 0 mm 2 mps 690 mmHg 87%
    01:00 +3°C° 0 mm 2 mps 689 mmHg 88%
    02:00 +3°C° 0 mm 2 mps 689 mmHg 88%
    03:00 +2°C° 0 mm 2 mps 689 mmHg 88%
    04:00 +2°C° 0 mm 2 mps 689 mmHg 88%
    05:00 +4°C° 0 mm 1 mps 689 mmHg 84%
    06:00 +5°C° 0 mm 1 mps 689 mmHg 80%
    07:00 +6°C° 0 mm 1 mps 689 mmHg 77%
    08:00 +8°C° 0 mm 1 mps 689 mmHg 69%
    09:00 +10°C° 0 mm 1 mps 689 mmHg 61%
    10:00 +12°C° 0 mm 1 mps 688 mmHg 53%
    11:00 +13°C° 0 mm 1 mps 688 mmHg 50%
    12:00 +15°C° 0 mm 1 mps 688 mmHg 47%
    13:00 +16°C° 0 mm 1 mps 688 mmHg 44%
    14:00 +16°C° 0 mm 1 mps 687 mmHg 46%
    15:00 +15°C° 0 mm 1 mps 687 mmHg 48%
    16:00 +15°C° 0 mm 1 mps 687 mmHg 50%
    17:00 +13°C° 0 mm 1 mps 687 mmHg 58%
    18:00 +11°C° 0 mm 1 mps 687 mmHg 66%
    19:00 +9°C° 0 mm 1 mps 686 mmHg 74%
    20:00 +8°C° 0 mm 1 mps 686 mmHg 77%
    21:00 +7°C° 0 mm 1 mps 687 mmHg 79%
    22:00 +7°C° 0 mm 1 mps 687 mmHg 82%
    23:00 +7°C° 0 mm 1 mps 686 mmHg 83%

    25 September, Tuesday

    Time Temperature Precipitation Wind Pressure Humidity
    00:00 +6°C° 0 mm 1 mps 686 mmHg 85%
    01:00 +6°C° 0 mm 1 mps 686 mmHg 86%
    02:00 +6°C° 0 mm 1 mps 686 mmHg 87%
    03:00 +5°C° 0 mm 1 mps 686 mmHg 87%
    04:00 +5°C° 0 mm 1 mps 686 mmHg 88%
    05:00 +6°C° 0 mm 1 mps 686 mmHg 85%
    06:00 +6°C° 0 mm 1 mps 686 mmHg 82%
    07:00 +7°C° 0 mm 1 mps 686 mmHg 80%
    08:00 +10°C° 0 mm 1 mps 686 mmHg 71%
    09:00 +12°C° 0 mm 1 mps 686 mmHg 62%
    10:00 +15°C° 0 mm 1 mps 686 mmHg 53%
    11:00 +16°C° 0 mm 1 mps 686 mmHg 50%
    12:00 +18°C° 0 mm 1 mps 685 mmHg 47%
    13:00 +19°C° 0 mm 1 mps 685 mmHg 44%
    14:00 +19°C° 0 mm 1 mps 685 mmHg 48%
    15:00 +18°C° 0 mm 1 mps 684 mmHg 52%
    16:00 +18°C° 0 mm 1 mps 684 mmHg 56%
    17:00 +15°C° 0 mm 1 mps 684 mmHg 61%
    18:00 +13°C° 0 mm 1 mps 684 mmHg 66%
    19:00 +12°C° 0 mm 1 mps 684 mmHg 72%
    20:00 +11°C° 0 mm 1 mps 683 mmHg 75%
    21:00 +11°C° 0 mm 1 mps 683 mmHg 77%
    22:00 +10°C° 0 mm 1 mps 683 mmHg 80%
    23:00 +10°C° 0 mm 1 mps 683 mmHg 81%

    26 September, Wednesday

    Time Temperature Precipitation Wind Pressure Humidity
    00:00 +9°C° 0 mm 1 mps 683 mmHg 83%
    01:00 +9°C° 0 mm 1 mps 683 mmHg 84%
    02:00 +9°C° 0 mm 1 mps 683 mmHg 85%
    03:00 +8°C° 0 mm 1 mps 683 mmHg 86%
    04:00 +8°C° 0 mm 1 mps 683 mmHg 87%
    05:00 +8°C° 0 mm 1 mps 683 mmHg 86%
    06:00 +9°C° 0 mm 1 mps 683 mmHg 85%
    07:00 +8°C° 0 mm 0 mps 683 mmHg 83%
    08:00 +10°C° 0.1 mm 1 mps 683 mmHg 79%
    09:00 +12°C° 0.1 mm 1 mps 683 mmHg 74%
    10:00 +13°C° 0.1 mm 2 mps 684 mmHg 69%
    11:00 +13°C° 0.2 mm 2 mps 684 mmHg 70%
    12:00 +12°C° 0.2 mm 3 mps 683 mmHg 71%
    13:00 +12°C° 0.2 mm 3 mps 683 mmHg 72%
    14:00 +12°C° 0.1 mm 3 mps 684 mmHg 72%
    15:00 +12°C° 0.1 mm 3 mps 684 mmHg 72%
    16:00 +12°C° 0.1 mm 3 mps 684 mmHg 72%
    17:00 +10°C° 0 mm 2 mps 684 mmHg 77%
    18:00 +9°C° 0 mm 2 mps 684 mmHg 82%
    19:00 +8°C° 0 mm 2 mps 684 mmHg 87%
    20:00 +8°C° 0 mm 1 mps 685 mmHg 88%
    21:00 +7°C° 0 mm 1 mps 685 mmHg 90%
    22:00 +7°C° 0 mm 1 mps 685 mmHg 92%
    23:00 +6°C° 0 mm 1 mps 685 mmHg 93%
    Show more